This is the latest recevied weather packets stored in our database for station/object W0DXV. If no packets are shown the sender has not sent any weather packets the latest 10 day(s).
| Time | Temp. | Humidity | Pressure | Rain* | Wind** | Luminosity | Snow |
|---|---|---|---|---|---|---|---|
| 1777583194 | 22.78° C | 38% | 1005.1 hPa | 0 mm | - | 53 W/m² | - |
| 1777582889 | 22.78° C | 39% | 1005.2 hPa | 0 mm | - | 51 W/m² | - |
| 1777582587 | 22.78° C | 39% | 1004.9 hPa | 0 mm | - | 54 W/m² | - |
| 1777582282 | 22.78° C | 38% | 1005.1 hPa | 0 mm | - | 68 W/m² | - |
| 1777581980 | 22.78° C | 39% | 1005 hPa | 0 mm | - | 79 W/m² | - |
| 1777581675 | 22.78° C | 40% | 1005.1 hPa | 0 mm | - | 127 W/m² | - |
| 1777581369 | 23.33° C | 40% | 1005.2 hPa | 0 mm | - | 372 W/m² | - |
| 1777581064 | 23.89° C | 38% | 1005.3 hPa | 0 mm | - | 372 W/m² | - |
| 1777580763 | 24.44° C | 37% | 1005.2 hPa | 0 mm | - | 460 W/m² | - |
| 1777580459 | 24.44° C | 36% | 1005.2 hPa | 0 mm | - | 452 W/m² | - |
| 1777580154 | 25° C | 41% | 1005.5 hPa | 0 mm | - | 480 W/m² | - |
| 1777579851 | 24.44° C | 38% | 1005.2 hPa | 0 mm | - | 523 W/m² | - |
| 1777579549 | 23.89° C | 39% | 1005.2 hPa | 0 mm | - | 554 W/m² | - |
| 1777579244 | 24.44° C | 39% | 1005.2 hPa | 0 mm | - | 561 W/m² | - |
| 1777578940 | 23.89° C | 40% | 1005.4 hPa | 0 mm | - | 591 W/m² | - |
| 1777578636 | 23.33° C | 40% | 1005.6 hPa | 0 mm | - | 624 W/m² | - |
| 1777578335 | 23.33° C | 40% | 1005.7 hPa | 0 mm | - | 383 W/m² | - |
| 1777578032 | 23.89° C | 42% | 1005.5 hPa | 0 mm | - | 145 W/m² | - |
| 1777577727 | 24.44° C | 40% | 1005.6 hPa | 0 mm | - | 628 W/m² | - |
| 1777577424 | 23.33° C | 43% | 1005.8 hPa | 0 mm | - | 632 W/m² | - |
| 1777577121 | 23.89° C | 41% | 1005.7 hPa | 0 mm | - | 672 W/m² | - |
| 1777576817 | 23.33° C | 41% | 1005.9 hPa | 0 mm | - | 261 W/m² | - |
| 1777576516 | 23.89° C | 45% | 1005.8 hPa | 0 mm | - | 205 W/m² | - |
| 1777576213 | 23.89° C | 42% | 1005.8 hPa | 0 mm | - | 788 W/m² | - |
| 1777575908 | 23.89° C | 44% | 1005.8 hPa | 0 mm | - | 765 W/m² | - |
* Rain latest hour (hover to see other rain measurements)
** Current wind speed in m/s (hover to see current wind gust speed)